CEB805 RPLL-WSSS

Flight info

Callsign CEB805
Flight time N/A
Altitude 40000
Route BUCAL2R BUCAL M646 TOKON M767 TOMAN KARTO2B
Aircraft A333/H-SDE3GHIJ2J3J5M1RVWXY/LB2D1

Departure

Time 2026-05-06 06:39
Airport Ninoy Aquino International Airport (RPLL)

Arrival

Time N/A
Airport Singapore Changi Airport (WSSS)
Time Latitude Longitude Altitude Speed Heading
2026-05-06 06:24 14.51568 121.01610 72 ft 0 kts 45°
2026-05-06 06:29 14.51567 121.01610 72 ft 1 kts 45°
2026-05-06 06:29 14.51550 121.01593 62 ft 4 kts 45°
2026-05-06 06:30 14.51531 121.01573 62 ft 4 kts 45°
2026-05-06 06:30 14.51516 121.01557 62 ft 4 kts 63°
2026-05-06 06:30 14.51513 121.01534 62 ft 4 kts 121°
2026-05-06 06:30 14.51530 121.01513 62 ft 3 kts 135°
2026-05-06 06:31 14.51522 121.01522 62 ft 1 kts 135°
2026-05-06 06:33 14.51513 121.01531 62 ft 8 kts 135°
2026-05-06 06:34 14.51434 121.01613 62 ft 24 kts 135°
2026-05-06 06:34 14.51304 121.01747 62 ft 27 kts 135°
2026-05-06 06:34 14.51171 121.01884 67 ft 27 kts 135°
2026-05-06 06:34 14.51064 121.01984 64 ft 6 kts 160°
2026-05-06 06:35 14.51034 121.01968 66 ft 6 kts 223°
2026-05-06 06:35 14.50993 121.01903 62 ft 15 kts 240°
2026-05-06 06:35 14.50925 121.01780 63 ft 24 kts 240°
2026-05-06 06:35 14.50831 121.01611 63 ft 30 kts 240°
2026-05-06 06:36 14.50718 121.01410 62 ft 34 kts 240°
2026-05-06 06:36 14.50599 121.01196 63 ft 34 kts 240°
2026-05-06 06:36 14.50480 121.00983 62 ft 34 kts 239°
2026-05-06 06:36 14.50360 121.00766 61 ft 35 kts 240°
2026-05-06 06:37 14.50238 121.00546 62 ft 36 kts 240°
2026-05-06 06:37 14.50114 121.00325 64 ft 36 kts 240°
2026-05-06 06:37 14.49997 121.00114 62 ft 25 kts 240°
2026-05-06 06:37 14.49934 121.00001 63 ft 6 kts 240°
2026-05-06 06:38 14.49907 120.99969 64 ft 3 kts 201°
2026-05-06 06:38 14.49871 120.99971 65 ft 10 kts 166°
2026-05-06 06:38 14.49812 121.00028 65 ft 14 kts 102°
2026-05-06 06:38 14.49859 121.00141 62 ft 22 kts 58°
2026-05-06 06:39 14.50007 121.00408 61 ft 74 kts 61°
2026-05-06 06:39 14.50378 121.01074 65 ft 137 kts 59°
2026-05-06 06:39 14.50950 121.02094 172 ft 184 kts 63°
2026-05-06 06:39 14.51598 121.03225 1059 ft 183 kts 63°
2026-05-06 06:40 14.52224 121.04354 1873 ft 184 kts 63°
2026-05-06 06:40 14.52888 121.05572 2221 ft 207 kts 63°
2026-05-06 06:40 14.53639 121.06946 2539 ft 231 kts 62°
2026-05-06 06:40 14.54377 121.08491 2888 ft 248 kts 72°
2026-05-06 06:41 14.54609 121.10285 3367 ft 256 kts 97°
2026-05-06 06:41 14.53980 121.11984 3973 ft 258 kts 127°
2026-05-06 06:41 14.52511 121.13056 4586 ft 267 kts 160°
2026-05-06 06:41 14.50647 121.13104 5153 ft 276 kts 194°
2026-05-06 06:42 14.48907 121.12229 5804 ft 281 kts 210°
2026-05-06 06:42 14.47253 121.11136 6422 ft 284 kts 211°
2026-05-06 06:42 14.45585 121.10033 7069 ft 286 kts 210°
2026-05-06 06:42 14.43888 121.08946 7701 ft 289 kts 210°
2026-05-06 06:43 14.42184 121.07880 8340 ft 290 kts 210°
2026-05-06 06:43 14.40445 121.06807 9037 ft 291 kts 210°
2026-05-06 06:43 14.38704 121.05741 9744 ft 292 kts 209°
2026-05-06 06:43 14.36930 121.04662 10188 ft 303 kts 209°
2026-05-06 06:44 14.35068 121.03532 10482 ft 318 kts 208°
2026-05-06 06:44 14.33112 121.02347 10741 ft 333 kts 208°
2026-05-06 06:44 14.31075 121.01113 11040 ft 345 kts 209°
2026-05-06 06:44 14.28985 120.99848 11470 ft 352 kts 209°
2026-05-06 06:45 14.26857 120.98559 11946 ft 356 kts 209°
2026-05-06 06:45 14.24710 120.97260 12477 ft 359 kts 210°
2026-05-06 06:45 14.22541 120.95946 12944 ft 365 kts 209°
2026-05-06 06:45 14.20345 120.94618 13506 ft 367 kts 209°
2026-05-06 06:46 14.18129 120.93278 13953 ft 372 kts 209°
2026-05-06 06:46 14.15890 120.91925 14451 ft 373 kts 210°
2026-05-06 06:46 14.13652 120.90571 14978 ft 375 kts 209°
2026-05-06 06:46 14.11404 120.89213 15544 ft 374 kts 210°
2026-05-06 06:47 14.09152 120.87852 16045 ft 376 kts 209°
2026-05-06 06:47 14.06885 120.86483 16502 ft 379 kts 210°
2026-05-06 06:47 14.05376 120.85570 16788 ft 381 kts 209°
2026-05-06 06:47 14.03079 120.84183 17263 ft 384 kts 209°
2026-05-06 06:48 14.00772 120.82791 17748 ft 385 kts 209°
2026-05-06 06:48 13.98446 120.81388 18189 ft 388 kts 210°
2026-05-06 06:48 13.96117 120.79983 18593 ft 389 kts 209°
2026-05-06 06:48 13.93766 120.78565 18968 ft 392 kts 210°
2026-05-06 06:49 13.91409 120.77143 19354 ft 394 kts 209°
2026-05-06 06:49 13.89038 120.75714 19738 ft 396 kts 209°
2026-05-06 06:49 13.86654 120.74277 20104 ft 398 kts 209°
2026-05-06 06:49 13.84260 120.72835 20491 ft 400 kts 210°
2026-05-06 06:50 13.81852 120.71383 20819 ft 403 kts 210°
2026-05-06 06:50 13.79424 120.69921 21159 ft 406 kts 210°
2026-05-06 06:50 13.76982 120.68450 21520 ft 408 kts 209°
2026-05-06 06:50 13.74529 120.66973 21888 ft 409 kts 210°
2026-05-06 06:51 13.72067 120.65492 22253 ft 411 kts 210°
2026-05-06 06:51 13.69597 120.64006 22618 ft 413 kts 210°
2026-05-06 06:51 13.67110 120.62509 22950 ft 415 kts 210°
2026-05-06 06:51 13.64614 120.61007 23300 ft 417 kts 210°
2026-05-06 06:52 13.62108 120.59501 23597 ft 419 kts 210°
2026-05-06 06:52 13.59557 120.58041 23874 ft 420 kts 207°
2026-05-06 06:52 13.56973 120.56704 24141 ft 422 kts 205°
2026-05-06 06:52 13.54284 120.55388 24423 ft 424 kts 204°
2026-05-06 06:53 13.51630 120.54125 24670 ft 427 kts 204°
2026-05-06 06:53 13.48930 120.52850 24955 ft 428 kts 204°
2026-05-06 06:53 13.46220 120.51568 25250 ft 429 kts 204°
2026-05-06 06:53 13.43505 120.50277 25541 ft 431 kts 204°
2026-05-06 06:54 13.40783 120.48976 25817 ft 432 kts 204°
2026-05-06 06:54 13.38055 120.47668 26105 ft 434 kts 204°
2026-05-06 06:54 13.35319 120.46354 26398 ft 435 kts 205°
2026-05-06 06:54 13.32573 120.45033 26681 ft 436 kts 205°
2026-05-06 06:55 13.29817 120.43708 26953 ft 438 kts 205°
2026-05-06 06:55 13.27050 120.42378 27222 ft 440 kts 205°
2026-05-06 06:55 13.24276 120.41044 27527 ft 441 kts 205°
2026-05-06 06:55 13.21488 120.39705 27815 ft 443 kts 205°
2026-05-06 06:56 13.18693 120.38363 28112 ft 444 kts 205°
2026-05-06 06:56 13.15889 120.37016 28363 ft 446 kts 205°
2026-05-06 06:56 13.13066 120.35662 28617 ft 449 kts 205°
2026-05-06 06:56 13.10235 120.34304 28930 ft 450 kts 205°
2026-05-06 06:57 13.07395 120.32942 29223 ft 451 kts 205°
2026-05-06 06:57 13.04548 120.31577 29509 ft 452 kts 205°
2026-05-06 06:57 13.01690 120.30207 29759 ft 454 kts 205°
2026-05-06 06:57 12.98820 120.28832 29964 ft 457 kts 205°
2026-05-06 06:58 12.95936 120.27450 30179 ft 458 kts 205°
2026-05-06 06:58 12.93042 120.26064 30401 ft 460 kts 205°
2026-05-06 06:58 12.90142 120.24676 30617 ft 461 kts 205°
2026-05-06 06:58 12.87223 120.23278 30815 ft 463 kts 205°
2026-05-06 06:59 12.84296 120.21877 31010 ft 465 kts 205°
2026-05-06 06:59 12.81357 120.20470 31247 ft 466 kts 205°
2026-05-06 06:59 12.78447 120.19079 31478 ft 467 kts 206°
2026-05-06 06:59 12.75492 120.17665 31691 ft 469 kts 206°
2026-05-06 07:00 12.72530 120.16248 31893 ft 471 kts 205°
2026-05-06 07:00 12.69552 120.14825 32114 ft 473 kts 206°
2026-05-06 07:00 12.66579 120.13405 32428 ft 472 kts 206°
2026-05-06 07:00 12.63605 120.11984 32745 ft 471 kts 206°
2026-05-06 07:01 12.60635 120.10566 33046 ft 471 kts 206°
2026-05-06 07:01 12.57665 120.09148 33340 ft 471 kts 206°
2026-05-06 07:01 12.54693 120.07729 33677 ft 471 kts 206°
2026-05-06 07:01 12.51732 120.06316 33999 ft 469 kts 206°
2026-05-06 07:02 12.48774 120.04904 34312 ft 468 kts 206°
2026-05-06 07:02 12.45832 120.03501 34628 ft 466 kts 206°
2026-05-06 07:02 12.42892 120.02099 34946 ft 465 kts 206°
2026-05-06 07:02 12.39966 120.00705 35253 ft 463 kts 206°
2026-05-06 07:03 12.37048 119.99313 35556 ft 462 kts 206°
2026-05-06 07:03 12.34138 119.97927 35853 ft 461 kts 206°
2026-05-06 07:03 12.31235 119.96544 36156 ft 460 kts 206°
2026-05-06 07:03 12.28335 119.95162 36449 ft 459 kts 206°
2026-05-06 07:04 12.25446 119.93787 36754 ft 458 kts 206°
2026-05-06 07:04 12.22560 119.92412 37065 ft 457 kts 206°
2026-05-06 07:04 12.19681 119.91042 37378 ft 456 kts 206°
2026-05-06 07:04 12.16813 119.89678 37690 ft 454 kts 206°
2026-05-06 07:05 12.13988 119.88334 37977 ft 453 kts 206°
2026-05-06 07:05 12.11092 119.86956 38284 ft 452 kts 206°
2026-05-06 07:05 12.08244 119.85602 38560 ft 451 kts 206°
2026-05-06 07:05 12.05438 119.84268 38757 ft 451 kts 206°
2026-05-06 07:06 12.02592 119.82916 38969 ft 450 kts 206°
2026-05-06 07:06 11.99750 119.81565 39174 ft 450 kts 206°
2026-05-06 07:06 11.96912 119.80216 39343 ft 450 kts 206°
2026-05-06 07:06 11.94066 119.78864 39547 ft 450 kts 206°
2026-05-06 07:07 11.91231 119.77518 39754 ft 450 kts 206°
2026-05-06 07:07 11.85524 119.74809 39844 ft 456 kts 206°
2026-05-06 07:08 11.79751 119.72070 39841 ft 457 kts 206°
2026-05-06 07:08 11.74006 119.69301 39839 ft 456 kts 210°
2026-05-06 07:09 11.68936 119.65476 39841 ft 453 kts 227°
2026-05-06 07:09 11.64951 119.60495 39843 ft 453 kts 234°
2026-05-06 07:10 11.61246 119.55289 39843 ft 454 kts 235°
2026-05-06 07:10 11.57574 119.50056 39845 ft 454 kts 235°
2026-05-06 07:11 11.53899 119.44873 39845 ft 454 kts 234°
2026-05-06 07:11 11.50182 119.39672 39843 ft 454 kts 234°
2026-05-06 07:12 11.46456 119.34473 39841 ft 454 kts 234°
2026-05-06 07:12 11.42727 119.29272 39838 ft 454 kts 234°
2026-05-06 07:13 11.39002 119.24076 39841 ft 454 kts 234°
2026-05-06 07:13 11.35273 119.18876 39840 ft 454 kts 234°
2026-05-06 07:14 11.31537 119.13669 39840 ft 455 kts 234°
2026-05-06 07:14 11.27804 119.08470 39839 ft 454 kts 234°
2026-05-06 07:15 11.24072 119.03273 39840 ft 454 kts 234°
2026-05-06 07:15 11.20340 118.98080 39842 ft 455 kts 234°
2026-05-06 07:16 11.16600 118.92879 39841 ft 455 kts 234°
2026-05-06 07:16 11.12884 118.87714 39838 ft 455 kts 234°
2026-05-06 07:17 11.09144 118.82518 39839 ft 454 kts 234°
2026-05-06 07:17 11.05407 118.77328 39839 ft 454 kts 234°
2026-05-06 07:18 11.01670 118.72141 39845 ft 455 kts 234°
2026-05-06 07:18 10.97932 118.66955 39835 ft 454 kts 234°
2026-05-06 07:19 10.94189 118.61766 39838 ft 455 kts 234°
2026-05-06 07:19 10.90444 118.56575 39835 ft 455 kts 234°
2026-05-06 07:20 10.86686 118.51369 39833 ft 457 kts 234°
2026-05-06 07:20 10.82926 118.46163 39836 ft 457 kts 234°
2026-05-06 07:21 10.79162 118.40955 39835 ft 457 kts 234°
2026-05-06 07:21 10.75396 118.35745 39836 ft 457 kts 234°
2026-05-06 07:22 10.71630 118.30539 39852 ft 456 kts 234°
2026-05-06 07:22 10.67869 118.25341 39841 ft 457 kts 234°
2026-05-06 07:23 10.64107 118.20144 39829 ft 456 kts 234°
2026-05-06 07:23 10.60360 118.14972 39831 ft 458 kts 234°
2026-05-06 07:24 10.56577 118.09751 39832 ft 459 kts 234°
2026-05-06 07:24 10.52792 118.04532 39831 ft 458 kts 234°
2026-05-06 07:25 10.49013 117.99322 39830 ft 458 kts 234°
2026-05-06 07:25 10.45237 117.94117 39830 ft 457 kts 234°
2026-05-06 07:26 10.41458 117.88913 39836 ft 458 kts 234°
2026-05-06 07:26 10.37675 117.83705 39843 ft 457 kts 234°
2026-05-06 07:27 10.33903 117.78498 39830 ft 457 kts 234°
2026-05-06 07:27 10.30161 117.73275 39827 ft 457 kts 234°
2026-05-06 07:28 10.26425 117.68049 39827 ft 457 kts 234°
2026-05-06 07:28 10.20815 117.60215 39827 ft 457 kts 234°
2026-05-06 07:29 10.17066 117.54988 39830 ft 458 kts 234°
2026-05-06 07:29 10.13342 117.49798 39832 ft 457 kts 234°
2026-05-06 07:30 10.09596 117.44580 39827 ft 457 kts 234°
2026-05-06 07:30 10.05858 117.39375 39843 ft 456 kts 234°
2026-05-06 07:31 10.02128 117.34183 39845 ft 455 kts 234°
2026-05-06 07:31 9.98395 117.28990 39831 ft 456 kts 234°
2026-05-06 07:32 9.94664 117.23801 39825 ft 455 kts 234°
2026-05-06 07:32 9.90927 117.18608 39826 ft 455 kts 234°
2026-05-06 07:33 9.87217 117.13452 39826 ft 455 kts 234°
2026-05-06 07:33 9.83478 117.08259 39826 ft 455 kts 234°
2026-05-06 07:34 9.79739 117.03070 39825 ft 456 kts 234°
2026-05-06 07:34 9.76000 116.97881 39824 ft 456 kts 233°
2026-05-06 07:35 9.72257 116.92690 39825 ft 456 kts 233°
2026-05-06 07:35 9.68512 116.87498 39823 ft 456 kts 233°
2026-05-06 07:36 9.65371 116.83146 39829 ft 456 kts 233°
2026-05-06 07:36 9.61623 116.77954 39830 ft 456 kts 233°
2026-05-06 07:37 9.57875 116.72764 39823 ft 456 kts 233°
2026-05-06 07:37 9.54128 116.67578 39839 ft 456 kts 233°
2026-05-06 07:38 9.50406 116.62428 39840 ft 456 kts 233°
2026-05-06 07:38 9.46652 116.57238 39826 ft 456 kts 233°
2026-05-06 07:39 9.42888 116.52035 39836 ft 459 kts 233°
2026-05-06 07:39 9.39106 116.46808 39823 ft 460 kts 233°
2026-05-06 07:40 9.35326 116.41587 39823 ft 460 kts 233°
2026-05-06 07:40 9.31545 116.36368 39824 ft 460 kts 233°
2026-05-06 07:41 9.27764 116.31151 39840 ft 459 kts 233°
2026-05-06 07:41 9.23995 116.25978 39823 ft 460 kts 233°
2026-05-06 07:42 9.20193 116.20777 39822 ft 459 kts 233°
2026-05-06 07:42 9.16391 116.15578 39825 ft 460 kts 233°
2026-05-06 07:43 9.12571 116.10356 39818 ft 462 kts 233°
2026-05-06 07:43 9.08746 116.05127 39831 ft 463 kts 233°
2026-05-06 07:44 9.04917 115.99894 39832 ft 462 kts 233°
2026-05-06 07:44 9.01084 115.94659 39817 ft 462 kts 233°
2026-05-06 07:45 8.97259 115.89436 39816 ft 462 kts 233°
2026-05-06 07:45 8.93435 115.84216 39832 ft 462 kts 233°
2026-05-06 07:46 8.89613 115.79000 39832 ft 462 kts 233°
2026-05-06 07:46 8.85785 115.73778 39831 ft 463 kts 233°
2026-05-06 07:47 8.81938 115.68532 39819 ft 465 kts 233°
2026-05-06 07:47 8.78081 115.63273 39818 ft 466 kts 233°
2026-05-06 07:48 8.74221 115.58012 39815 ft 466 kts 233°
2026-05-06 07:48 8.70359 115.52753 39832 ft 466 kts 233°
2026-05-06 07:49 8.66525 115.47532 39817 ft 465 kts 233°
2026-05-06 07:49 8.62664 115.42278 39821 ft 465 kts 233°
2026-05-06 07:50 8.58806 115.37028 39826 ft 466 kts 233°
2026-05-06 07:50 8.54944 115.31776 39833 ft 466 kts 233°
2026-05-06 07:51 8.51075 115.26516 39830 ft 466 kts 233°
2026-05-06 07:51 8.47205 115.21258 39812 ft 467 kts 233°
2026-05-06 07:52 8.43330 115.15993 39819 ft 466 kts 233°
2026-05-06 07:52 8.39459 115.10738 39829 ft 466 kts 233°
2026-05-06 07:53 8.35586 115.05480 39808 ft 466 kts 233°
2026-05-06 07:53 8.31714 115.00225 39808 ft 466 kts 233°
2026-05-06 07:54 8.27834 114.94964 39822 ft 467 kts 233°
2026-05-06 07:54 8.23952 114.89700 39807 ft 468 kts 233°
2026-05-06 07:55 8.20059 114.84424 39824 ft 468 kts 233°
2026-05-06 07:55 8.16192 114.79185 39827 ft 468 kts 233°
2026-05-06 07:56 8.12300 114.73913 39823 ft 468 kts 233°
2026-05-06 07:56 8.08403 114.68638 39807 ft 468 kts 233°
2026-05-06 07:57 8.04514 114.63374 39809 ft 468 kts 233°
2026-05-06 07:57 8.00621 114.58107 39808 ft 468 kts 233°
2026-05-06 07:58 7.96724 114.52838 39816 ft 468 kts 233°
2026-05-06 07:58 7.92824 114.47565 39825 ft 468 kts 233°
2026-05-06 07:59 7.88927 114.42299 39808 ft 468 kts 233°
2026-05-06 07:59 7.85031 114.37035 39806 ft 468 kts 233°
2026-05-06 08:00 7.81160 114.31807 39822 ft 468 kts 233°
2026-05-06 08:00 7.77260 114.26542 39822 ft 469 kts 233°
2026-05-06 08:01 7.73360 114.21277 39807 ft 469 kts 233°
2026-05-06 08:01 7.69459 114.16014 39803 ft 468 kts 233°
2026-05-06 08:02 7.65554 114.10747 39818 ft 468 kts 233°
2026-05-06 08:02 7.61655 114.05490 39820 ft 468 kts 233°
2026-05-06 08:03 7.57750 114.00227 39816 ft 469 kts 233°
2026-05-06 08:03 7.53844 113.94964 39811 ft 469 kts 233°
2026-05-06 08:04 7.49937 113.89701 39802 ft 469 kts 233°
2026-05-06 08:04 7.46031 113.84442 39819 ft 469 kts 233°
2026-05-06 08:05 7.42124 113.79183 39817 ft 469 kts 233°
2026-05-06 08:05 7.38215 113.73924 39805 ft 469 kts 233°
2026-05-06 08:06 7.34323 113.68689 39815 ft 470 kts 233°
2026-05-06 08:06 7.30401 113.63416 39799 ft 471 kts 233°
2026-05-06 08:07 7.26473 113.58136 39818 ft 470 kts 233°
2026-05-06 08:07 7.22550 113.52866 39815 ft 470 kts 233°
2026-05-06 08:08 7.18626 113.47595 39808 ft 470 kts 233°
2026-05-06 08:08 7.14700 113.42324 39805 ft 470 kts 233°
2026-05-06 08:09 7.10768 113.37046 39816 ft 471 kts 233°
2026-05-06 08:09 7.06831 113.31763 39817 ft 472 kts 233°
2026-05-06 08:10 7.02890 113.26477 39803 ft 472 kts 233°
2026-05-06 08:10 6.98950 113.21193 39803 ft 472 kts 232°
2026-05-06 08:11 6.95009 113.15911 39813 ft 472 kts 232°
2026-05-06 08:11 6.91063 113.10623 39798 ft 472 kts 232°
2026-05-06 08:12 6.87118 113.05338 39813 ft 472 kts 233°
2026-05-06 08:12 6.83169 113.00050 39815 ft 473 kts 233°
2026-05-06 08:13 6.79219 112.94761 39813 ft 473 kts 233°
2026-05-06 08:13 6.75270 112.89476 39798 ft 473 kts 233°
2026-05-06 08:14 6.71343 112.84222 39813 ft 473 kts 233°
2026-05-06 08:14 6.67393 112.78938 39808 ft 473 kts 233°
2026-05-06 08:15 6.63437 112.73648 39815 ft 473 kts 233°
2026-05-06 08:15 6.59480 112.68358 39817 ft 474 kts 232°
2026-05-06 08:16 6.55519 112.63065 39814 ft 474 kts 233°
2026-05-06 08:16 6.51556 112.57772 39814 ft 473 kts 232°
2026-05-06 08:17 6.47597 112.52484 39815 ft 473 kts 232°
2026-05-06 08:17 6.43634 112.47194 39813 ft 473 kts 232°
2026-05-06 08:18 6.39671 112.41907 39814 ft 473 kts 232°
2026-05-06 08:18 6.35710 112.36623 39815 ft 473 kts 232°
2026-05-06 08:19 6.31752 112.31343 39818 ft 473 kts 232°
2026-05-06 08:19 6.27778 112.26045 39815 ft 475 kts 232°
2026-05-06 08:20 6.23821 112.20770 39815 ft 476 kts 232°
2026-05-06 08:20 6.19839 112.15463 39813 ft 476 kts 232°
2026-05-06 08:21 6.15855 112.10156 39818 ft 476 kts 232°
2026-05-06 08:21 6.11868 112.04845 39802 ft 476 kts 232°
2026-05-06 08:22 6.07881 111.99538 39819 ft 476 kts 232°
2026-05-06 08:22 6.03893 111.94228 39801 ft 476 kts 232°
2026-05-06 08:23 5.99908 111.88925 39815 ft 476 kts 232°
2026-05-06 08:23 5.95924 111.83624 39812 ft 475 kts 232°
2026-05-06 08:24 5.91945 111.78332 39814 ft 474 kts 232°
2026-05-06 08:24 5.87993 111.73076 39812 ft 475 kts 232°
2026-05-06 08:25 5.84650 111.68631 39815 ft 476 kts 232°
2026-05-06 08:25 5.80660 111.63328 39816 ft 476 kts 232°
2026-05-06 08:26 5.76671 111.58028 39811 ft 476 kts 232°
2026-05-06 08:26 5.72684 111.52733 39812 ft 476 kts 232°
2026-05-06 08:27 5.68693 111.47433 39810 ft 476 kts 232°
2026-05-06 08:27 5.64730 111.42171 39812 ft 475 kts 232°
2026-05-06 08:28 5.60753 111.36892 39813 ft 473 kts 232°
2026-05-06 08:28 5.56783 111.31624 39814 ft 473 kts 232°
2026-05-06 08:29 5.52814 111.26358 39812 ft 473 kts 232°
2026-05-06 08:29 5.48844 111.21094 39812 ft 473 kts 232°
2026-05-06 08:30 5.44876 111.15833 39811 ft 473 kts 232°
2026-05-06 08:30 5.40902 111.10564 39813 ft 473 kts 232°
2026-05-06 08:31 5.36928 111.05298 39814 ft 473 kts 232°
2026-05-06 08:31 5.32952 111.00030 39813 ft 473 kts 232°
2026-05-06 08:32 5.28980 110.94767 39814 ft 474 kts 232°
2026-05-06 08:32 5.24997 110.89493 39812 ft 474 kts 232°
2026-05-06 08:33 5.21016 110.84222 39809 ft 474 kts 232°
2026-05-06 08:33 5.17031 110.78947 39814 ft 474 kts 232°
2026-05-06 08:34 5.11066 110.71054 39814 ft 476 kts 232°
2026-05-06 08:35 5.07072 110.65769 39812 ft 476 kts 232°
2026-05-06 08:35 5.03073 110.60481 39812 ft 476 kts 232°
2026-05-06 08:36 4.99076 110.55195 39812 ft 476 kts 232°
2026-05-06 08:36 4.95079 110.49911 39811 ft 474 kts 232°
2026-05-06 08:37 4.91090 110.44639 39814 ft 474 kts 232°
2026-05-06 08:37 4.87104 110.39372 39809 ft 475 kts 232°
2026-05-06 08:38 4.83107 110.34093 39812 ft 475 kts 232°
2026-05-06 08:38 4.79116 110.28821 39814 ft 475 kts 232°
2026-05-06 08:39 4.75123 110.23548 39799 ft 475 kts 232°
2026-05-06 08:39 4.71129 110.18275 39810 ft 475 kts 232°
2026-05-06 08:40 4.67137 110.13005 39797 ft 475 kts 232°
2026-05-06 08:40 4.63167 110.07767 39811 ft 475 kts 232°
2026-05-06 08:41 4.59175 110.02500 39800 ft 474 kts 232°
2026-05-06 08:41 4.55184 109.97235 39816 ft 474 kts 232°
2026-05-06 08:42 4.51195 109.91974 39814 ft 474 kts 232°
2026-05-06 08:42 4.47204 109.86711 39816 ft 474 kts 232°
2026-05-06 08:43 4.43213 109.81449 39818 ft 474 kts 232°
2026-05-06 08:43 4.39223 109.76189 39819 ft 474 kts 232°
2026-05-06 08:44 4.35226 109.70921 39802 ft 475 kts 232°
2026-05-06 08:44 4.31252 109.65684 39815 ft 475 kts 232°
2026-05-06 08:45 4.27249 109.60412 39815 ft 475 kts 232°
2026-05-06 08:45 4.23249 109.55144 39814 ft 475 kts 232°
2026-05-06 08:46 4.19247 109.49875 39811 ft 475 kts 232°
2026-05-06 08:46 4.15248 109.44610 39815 ft 475 kts 232°
2026-05-06 08:47 4.11240 109.39335 39811 ft 476 kts 232°
2026-05-06 08:47 4.07228 109.34057 39804 ft 476 kts 232°
2026-05-06 08:48 4.03216 109.28778 39816 ft 476 kts 232°
2026-05-06 08:48 3.99206 109.23504 39813 ft 476 kts 232°
2026-05-06 08:49 3.95188 109.18219 39806 ft 476 kts 232°
2026-05-06 08:49 3.91200 109.12976 39816 ft 476 kts 232°
2026-05-06 08:50 3.87181 109.07692 39813 ft 477 kts 232°
2026-05-06 08:50 3.83160 109.02406 39795 ft 477 kts 232°
2026-05-06 08:51 3.79137 108.97119 39812 ft 477 kts 232°
2026-05-06 08:51 3.75114 108.91833 39813 ft 477 kts 232°
2026-05-06 08:52 3.71088 108.86545 39803 ft 477 kts 232°
2026-05-06 08:52 3.67069 108.81251 39809 ft 477 kts 232°
2026-05-06 08:53 3.63057 108.75958 39815 ft 477 kts 232°
2026-05-06 08:53 3.59045 108.70668 39793 ft 477 kts 232°
2026-05-06 08:54 3.55030 108.65376 39805 ft 478 kts 232°
2026-05-06 08:54 3.51010 108.60078 39806 ft 478 kts 232°
2026-05-06 08:55 3.46990 108.54782 39807 ft 478 kts 232°
2026-05-06 08:55 3.42968 108.49484 39790 ft 478 kts 232°
2026-05-06 08:56 3.38947 108.44189 39809 ft 478 kts 232°
2026-05-06 08:56 3.34927 108.38895 39812 ft 477 kts 232°
2026-05-06 08:57 3.30913 108.33611 39794 ft 476 kts 232°
2026-05-06 08:57 3.26904 108.28333 39792 ft 476 kts 232°
2026-05-06 08:58 3.22922 108.23090 39805 ft 476 kts 232°
2026-05-06 08:58 3.18909 108.17810 39807 ft 477 kts 232°
2026-05-06 08:59 3.14897 108.12530 39807 ft 477 kts 232°
2026-05-06 08:59 3.10882 108.07248 39808 ft 477 kts 232°
2026-05-06 09:00 3.06869 108.01968 39806 ft 477 kts 232°
2026-05-06 09:00 3.02856 107.96689 39790 ft 477 kts 232°
2026-05-06 09:01 2.98839 107.91406 39790 ft 477 kts 232°
2026-05-06 09:01 2.94822 107.86124 39807 ft 477 kts 232°
2026-05-06 09:02 2.90807 107.80844 39807 ft 477 kts 232°
2026-05-06 09:02 2.86794 107.75569 39804 ft 476 kts 232°
2026-05-06 09:03 2.82781 107.70294 39805 ft 476 kts 232°
2026-05-06 09:03 2.78801 107.65062 39800 ft 476 kts 232°
2026-05-06 09:04 2.74790 107.59792 39793 ft 476 kts 232°
2026-05-06 09:04 2.70783 107.54526 39810 ft 476 kts 232°
2026-05-06 09:05 2.66773 107.49258 39802 ft 476 kts 232°
2026-05-06 09:05 2.62764 107.43991 39804 ft 476 kts 232°
2026-05-06 09:06 2.58754 107.38724 39787 ft 476 kts 232°
2026-05-06 09:06 2.54742 107.33456 39802 ft 476 kts 232°
2026-05-06 09:07 2.50733 107.28190 39801 ft 475 kts 232°
2026-05-06 09:07 2.46729 107.22932 39803 ft 475 kts 232°
2026-05-06 09:08 2.42722 107.17673 39803 ft 475 kts 232°
2026-05-06 09:08 2.38742 107.12447 39803 ft 475 kts 232°
2026-05-06 09:09 2.34732 107.07193 39806 ft 475 kts 232°
2026-05-06 09:09 2.30708 107.01938 39803 ft 475 kts 232°
2026-05-06 09:10 2.26689 106.96694 39802 ft 474 kts 232°
2026-05-06 09:10 2.22676 106.91457 39807 ft 475 kts 232°
2026-05-06 09:11 2.18659 106.86214 39803 ft 475 kts 232°
2026-05-06 09:11 2.14672 106.81011 39803 ft 474 kts 232°
2026-05-06 09:12 2.10660 106.75774 39800 ft 474 kts 232°
2026-05-06 09:12 2.07330 106.71429 39802 ft 474 kts 232°
2026-05-06 09:13 2.03325 106.66204 39806 ft 473 kts 232°
2026-05-06 09:13 1.99323 106.60981 39806 ft 473 kts 232°
2026-05-06 09:14 1.95323 106.55764 39807 ft 473 kts 232°
2026-05-06 09:14 1.91321 106.50543 39807 ft 473 kts 232°
2026-05-06 09:15 1.87320 106.45324 39811 ft 473 kts 232°
2026-05-06 09:15 1.83316 106.40104 39811 ft 473 kts 232°
2026-05-06 09:16 1.79317 106.34889 39808 ft 472 kts 232°
2026-05-06 09:16 1.75346 106.29712 39811 ft 472 kts 232°
2026-05-06 09:17 1.71353 106.24506 39813 ft 472 kts 232°